Temp
3 2 2 3 3 3 3 3 4 4 3 3 3 5 6 7 8 8 8 8 7 6 4 4 4 4 4 4 5 5 5 5 5 5 4 5 5 6 6 7 7 7 9 9 9 9 10
2 2 2 2 2 3 2 3 3 3 3 3 3 3 5 7 7 7 7 7 7 5 4 3 4 4 4 4 5 5 5 5 4 4 4 4 5 6 5 5 5 7 8 8 9 8 9
2 2 2 2 2 2 2 2 3 3 3 3 3 3 4 5 7 7 7 7 7 6 6 4 4 4 3 4 6 5 4 4 4 4 4 4 4 4 5 5 4 5 6 8 9 8 7
2 2 2 2 2 2 2 2 2 2 2 3 2 2 2 3 5 7 7 7 6 6 6 4 3 3 4 5 5 5 4 4 4 4 4 4 3 4 5 4 4 6 7 7 8 6 5
2 2 1 1 1 1 1 1 1 2 2 2 1 1 2 4 4 6 7 7 5 5 3 3 3 3 4 5 5 5 4 3 3 3 3 3 3 4 4 3 5 5 8 7 7 8 8
2 1 1 1 1 1 1 1 1 1 2 2 2 1 3 4 5 6 6 6 4 4 3 3 3 3 4 5 5 5 4 3 3 3 4 4 4 5 4 5 9 8 8 7 9 11 10
1 1 1 1 1 1 1 1 1 1 1 1 1 1 3 3 5 5 6 4 4 3 3 5 5 5 5 5 5 5 4 4 3 4 5 5 5 5 7 6 9 7 10 8 11 11 11
1 1 1 1 1 1 1 1 1 1 1 0 1 1 3 2 3 4 4 4 5 5 5 5 4 4 5 5 5 5 4 4 5 6 7 6 6 9 6 5 7 6 10 10 10 10 11
1 1 1 1 1 1 1 1 0 0 0 0 0 1 2 4 3 3 3 4 5 5 6 5 4 4 5 5 6 6 4 5 6 7 7 6 9 6 6 5 8 9 11 10 9 9 10
1 1 1 1 1 0 0 0 0 0 1 0 -0 -0 0 2 3 3 3 4 4 4 5 7 5 5 5 5 6 5 5 5 6 7 8 6 9 8 7 7 8 9 11 11 10 10 11
1 1 1 1 0 0 0 -0 0 0 0 0 -0 -0 -0 -0 1 2 3 3 3 4 7 6 5 5 5 6 6 6 5 4 7 8 7 8 9 9 9 9 8 10 10 10 11 11 12
2 1 1 0 0 -0 -0 -0 0 -0 -0 -0 0 1 0 1 0 2 2 2 2 4 6 6 5 6 6 6 7 5 5 4 5 6 6 7 7 7 6 7 7 11 11 11 11 12 11
2 1 0 0 -0 -0 -0 -0 0 -0 -0 0 0 0 0 -0 0 1 2 1 4 6 6 5 6 6 8 7 8 7 7 6 6 7 7 5 6 7 7 7 10 11 11 10 11 11 10
2 1 0 -0 -0 -0 -0 0 -1 -1 -0 -0 0 -0 -0 0 0 1 1 2 5 7 7 7 7 7 8 8 8 8 8 5 4 3 6 8 8 6 8 8 9 10 10 11 11 12 11
1 0 -0 -0 -0 -0 -0 -1 -1 -0 0 -0 0 0 -1 -0 -0 1 1 5 6 7 7 7 7 8 8 8 9 8 8 9 9 8 8 8 7 7 8 9 10 10 10 10 11 12 13
2 -0 -1 -1 -1 -1 -0 -1 -1 0 0 0 -0 -0 -0 0 1 1 2 5 6 6 7 7 8 8 9 8 9 9 9 9 9 8 8 9 8 7 9 9 10 11 11 11 11 12 12
1 0 -1 -1 -1 -1 -1 -0 -0 0 0 0 -0 -1 1 1 1 1 4 4 5 6 6 7 7 8 8 8 9 9 9 9 9 9 9 10 11 7 9 9 9 11 11 11 11 11 14
0 -1 -1 -1 -1 -1 -0 -0 0 0 -0 0 -0 1 0 2 1 1 5 4 5 4 6 7 8 8 9 8 9 9 9 9 8 9 9 9 10 8 9 9 9 9 10 11 13 11 10
0 -1 -1 -1 -1 -0 -0 -0 0 0 0 0 -0 -1 1 2 3 4 3 3 3 5 6 8 9 9 8 8 9 9 9 8 8 9 9 10 9 9 10 10 10 10 10 10 10 11 9
-0 -2 -1 -1 -0 -0 -0 0 0 0 0 -0 -0 1 1 1 2 5 4 3 3 4 5 8 8 9 9 9 9 8 9 8 8 8 6 9 8 9 11 9 9 10 10 10 11 11 13
-1 -2 -1 -1 -0 0 0 0 0 0 0 -0 -0 1 1 3 3 3 3 2 4 4 7 8 8 9 9 9 9 8 9 9 9 7 8 10 7 6 7 8 9 9 10 10 10 10 12
-1 -2 -1 -1 -0 -0 0 0 0 0 0 -0 0 1 1 2 2 3 2 3 4 5 7 8 9 9 10 10 10 9 9 9 9 10 9 8 7 7 7 8 8 9 9 9 10 9 11
-1 -1 -1 -1 -1 -0 0 0 0 1 0 0 0 1 1 1 2 3 3 4 6 6 7 7 9 10 9 8 8 9 8 8 9 10 9 9 9 8 9 8 9 11 9 9 9 9 10
-2 -1 -1 -1 -0 -0 0 0 0 0 0 -0 0 1 2 3 2 3 3 4 5 7 7 6 7 10 6 7 7 8 8 8 9 8 9 9 8 7 8 9 10 9 8 8 9 10 9
-1 -1 -1 -1 -0 0 0 0 0 1 1 1 1 1 2 2 2 2 4 4 5 6 5 5 4 5 6 7 9 9 9 9 8 7 8 10 9 7 9 9 9 9 8 8 9 10 9
-1 -1 -1 -1 0 0 1 1 1 1 2 1 1 1 2 4 2 -0 3 4 6 5 6 5 5 6 6 8 9 8 8 8 8 8 7 7 9 9 7 8 10 10 8 7 8 11 8
-1 -1 -1 -0 0 1 2 2 2 2 2 2 2 2 2 2 -0 0 3 4 4 3 5 5 6 6 7 8 8 8 8 6 8 8 8 8 8 8 9 9 9 9 8 7 9 10 7
0 -1 -1 1 1 2 3 3 3 3 3 2 2 2 3 1 -0 1 1 2 3 4 7 5 6 6 6 6 8 7 8 7 7 7 7 8 8 8 9 8 7 7 7 9 9 5 6
1 1 0 1 2 2 3 3 3 3 2 2 3 3 3 2 1 1 1 2 3 3 3 4 5 5 6 6 6 6 7 6 7 8 5 7 9 9 9 10 7 6 7 7 7 7 5
Height
1550 1546 1543 1538 1536 1533 1529 1524 1520 1517 1512 1507 1504 1500 1496 1494 1491 1489 1491 1492 1491 1490 1488 1488 1488 1487 1489 1488 1487 1487 1486 1487 1487 1488 1488 1488 1487 1486 1484 1479 1479 1475 1470 1468 1468 1469 1470
1549 1545 1542 1538 1534 1530 1526 1523 1518 1514 1509 1505 1501 1496 1491 1490 1487 1486 1487 1487 1486 1485 1483 1484 1484 1485 1486 1486 1481 1484 1484 1484 1484 1486 1486 1486 1484 1484 1481 1479 1478 1469 1466 1462 1463 1465 1467
1547 1543 1540 1537 1534 1529 1524 1519 1515 1511 1506 1502 1497 1492 1487 1484 1482 1482 1483 1481 1480 1480 1479 1480 1481 1481 1482 1479 1478 1480 1481 1481 1481 1483 1483 1482 1482 1483 1478 1476 1472 1468 1466 1459 1457 1460 1462
1545 1541 1537 1534 1530 1525 1521 1517 1513 1509 1505 1500 1495 1488 1482 1478 1475 1477 1476 1476 1476 1476 1476 1476 1479 1480 1479 1476 1473 1476 1477 1476 1477 1479 1479 1479 1479 1477 1475 1472 1469 1462 1460 1454 1449 1458 1459
1543 1540 1536 1532 1528 1523 1520 1516 1511 1507 1502 1497 1491 1485 1478 1475 1469 1469 1470 1471 1471 1472 1473 1475 1478 1478 1475 1472 1471 1473 1473 1473 1475 1475 1475 1476 1475 1472 1470 1469 1463 1459 1445 1447 1448 1445 1450
1541 1538 1533 1530 1526 1523 1518 1513 1508 1504 1499 1494 1488 1481 1476 1471 1464 1464 1466 1465 1467 1469 1472 1474 1475 1479 1472 1470 1469 1470 1469 1469 1473 1474 1474 1472 1470 1466 1464 1460 1440 1441 1443 1445 1440 1434 1441
1539 1535 1531 1527 1523 1519 1514 1510 1505 1501 1495 1491 1485 1479 1473 1468 1462 1463 1464 1464 1470 1471 1469 1463 1464 1464 1466 1466 1467 1467 1468 1470 1471 1471 1467 1465 1463 1458 1452 1451 1442 1446 1436 1441 1428 1430 1435
1537 1532 1528 1523 1519 1514 1510 1506 1501 1497 1493 1488 1483 1477 1472 1467 1465 1462 1460 1459 1461 1462 1461 1458 1461 1462 1463 1464 1466 1465 1466 1470 1467 1461 1462 1462 1455 1446 1451 1450 1445 1447 1432 1432 1431 1432 1432
1534 1529 1524 1519 1515 1511 1506 1502 1497 1492 1488 1484 1479 1475 1470 1465 1461 1461 1458 1458 1459 1460 1459 1456 1455 1458 1460 1461 1462 1461 1464 1464 1462 1460 1458 1457 1445 1449 1448 1447 1439 1435 1426 1429 1433 1435 1434
1529 1524 1520 1514 1509 1505 1500 1496 1490 1485 1481 1478 1474 1471 1467 1462 1462 1458 1456 1456 1458 1459 1458 1452 1453 1454 1456 1459 1459 1459 1460 1463 1461 1456 1452 1453 1444 1444 1444 1443 1439 1433 1429 1428 1433 1432 1426
1523 1519 1514 1508 1504 1498 1494 1490 1484 1480 1475 1471 1468 1466 1464 1462 1458 1457 1457 1455 1457 1460 1444 1449 1453 1453 1453 1457 1456 1456 1457 1459 1455 1452 1454 1444 1441 1440 1438 1436 1439 1431 1434 1433 1430 1425 1418
1517 1513 1509 1504 1499 1494 1488 1484 1479 1474 1469 1465 1462 1460 1458 1458 1455 1454 1452 1454 1458 1458 1440 1446 1449 1450 1453 1454 1453 1454 1454 1455 1453 1451 1452 1448 1445 1441 1442 1441 1440 1429 1430 1431 1431 1426 1429
1512 1508 1504 1499 1494 1489 1483 1478 1473 1468 1463 1459 1456 1453 1452 1453 1450 1451 1452 1454 1453 1440 1440 1445 1445 1446 1447 1448 1450 1450 1450 1451 1451 1447 1446 1450 1445 1439 1438 1437 1433 1430 1427 1431 1425 1422 1434
1506 1500 1498 1494 1489 1483 1478 1473 1467 1462 1456 1451 1447 1444 1440 1442 1444 1449 1451 1454 1440 1432 1433 1438 1440 1443 1443 1445 1446 1446 1447 1451 1454 1454 1447 1439 1440 1445 1441 1440 1437 1433 1432 1422 1425 1423 1432
1500 1495 1492 1488 1483 1479 1473 1468 1462 1456 1451 1445 1437 1428 1422 1423 1432 1444 1449 1440 1430 1430 1433 1436 1441 1439 1442 1445 1443 1444 1443 1443 1443 1445 1441 1440 1445 1448 1443 1442 1442 1437 1435 1434 1426 1428 1425
1493 1490 1487 1484 1479 1474 1469 1463 1458 1452 1446 1440 1429 1418 1412 1414 1424 1439 1446 1437 1435 1436 1436 1437 1434 1437 1437 1440 1440 1440 1439 1444 1444 1445 1443 1440 1445 1449 1444 1442 1442 1439 1440 1435 1431 1430 1435
1489 1485 1483 1480 1476 1471 1466 1460 1454 1449 1443 1436 1425 1421 1420 1425 1434 1440 1438 1440 1439 1438 1438 1438 1437 1438 1439 1440 1440 1440 1442 1444 1443 1444 1444 1440 1435 1451 1444 1443 1442 1435 1433 1434 1433 1434 1423
1485 1482 1480 1477 1473 1469 1463 1458 1452 1447 1440 1434 1428 1425 1425 1431 1438 1442 1437 1442 1441 1441 1441 1441 1439 1439 1438 1441 1441 1440 1442 1445 1446 1444 1442 1446 1442 1449 1447 1447 1448 1445 1438 1434 1424 1439 1443
1485 1482 1479 1475 1471 1466 1461 1456 1450 1446 1441 1435 1431 1428 1431 1435 1438 1439 1444 1445 1446 1445 1443 1440 1437 1439 1443 1441 1442 1444 1445 1449 1448 1446 1445 1444 1448 1448 1444 1446 1447 1444 1445 1443 1438 1436 1450
1482 1479 1476 1473 1469 1464 1459 1454 1450 1447 1442 1439 1437 1435 1440 1440 1441 1441 1445 1448 1448 1447 1446 1441 1440 1441 1441 1441 1443 1447 1447 1449 1450 1449 1449 1448 1453 1450 1444 1453 1455 1448 1446 1443 1441 1440 1438
1480 1476 1473 1471 1467 1463 1458 1453 1450 1447 1444 1442 1441 1442 1444 1442 1445 1446 1448 1451 1449 1447 1444 1442 1441 1440 1439 1442 1444 1447 1449 1449 1450 1450 1451 1449 1461 1464 1461 1460 1456 1453 1451 1448 1450 1450 1445
1478 1473 1471 1468 1464 1461 1457 1453 1450 1447 1445 1444 1445 1445 1445 1447 1448 1449 1451 1451 1450 1449 1443 1442 1440 1442 1440 1440 1442 1446 1447 1448 1449 1449 1449 1453 1461 1463 1464 1462 1459 1456 1455 1454 1454 1455 1454
1476 1472 1469 1466 1462 1458 1455 1452 1450 1448 1447 1448 1447 1448 1449 1450 1450 1450 1450 1450 1447 1448 1445 1445 1443 1441 1442 1446 1447 1448 1449 1451 1451 1450 1451 1452 1455 1456 1456 1461 1457 1453 1460 1458 1459 1461 1458
1474 1470 1468 1464 1460 1457 1453 1451 1449 1448 1447 1448 1448 1450 1450 1449 1450 1449 1450 1449 1450 1447 1446 1447 1446 1443 1451 1450 1452 1454 1454 1455 1455 1455 1455 1455 1457 1461 1459 1453 1450 1461 1463 1462 1461 1460 1461
1473 1468 1466 1462 1458 1454 1450 1448 1445 1444 1445 1446 1447 1449 1450 1451 1451 1450 1449 1450 1451 1450 1451 1451 1450 1451 1453 1453 1453 1454 1457 1456 1459 1462 1459 1457 1459 1465 1459 1459 1460 1460 1463 1463 1461 1458 1461
1470 1467 1463 1459 1455 1451 1447 1444 1442 1441 1442 1445 1446 1449 1450 1451 1453 1452 1451 1452 1450 1454 1453 1455 1455 1455 1455 1455 1454 1456 1456 1461 1463 1463 1464 1463 1460 1460 1466 1463 1457 1457 1463 1464 1465 1455 1464
1469 1466 1462 1458 1452 1447 1443 1439 1438 1440 1442 1444 1447 1449 1451 1451 1454 1453 1452 1452 1455 1456 1456 1457 1458 1458 1457 1457 1456 1457 1460 1468 1461 1461 1465 1464 1466 1465 1464 1464 1459 1459 1463 1465 1462 1461 1462
1466 1463 1460 1455 1450 1447 1441 1436 1436 1440 1443 1446 1450 1450 1451 1451 1454 1453 1453 1454 1455 1456 1453 1459 1460 1461 1463 1464 1459 1461 1459 1464 1464 1467 1466 1462 1462 1463 1463 1466 1465 1462 1466 1464 1462 1463 1465
1464 1460 1460 1455 1450 1447 1443 1438 1437 1441 1446 1449 1451 1451 1450 1451 1454 1455 1455 1455 1455 1456 1456 1457 1458 1459 1460 1462 1465 1465 1462 1468 1464 1458 1471 1464 1461 1459 1461 1457 1461 1461 1462 1462 1462 1463 1464
Wind_Speed
21 22 22 22 22 22 23 23 22 25 27 26 21 17 14 14 14 23 14 19 18 15 13 11 9 11 9 4 12 13 14 12 13 11 6 7 10 11 12 9 12 19 21 22 27 27 27
22 24 24 22 22 22 23 22 25 26 24 27 27 20 20 19 19 15 21 26 16 14 12 10 8 10 9 8 7 6 8 8 9 11 9 7 8 9 12 11 13 11 15 25 26 22 24
23 22 23 23 23 23 24 25 25 24 23 23 27 25 21 22 22 18 21 26 16 14 14 9 10 12 13 14 9 12 12 11 13 13 12 11 10 10 4 9 14 20 16 15 21 23 12
23 23 23 24 23 24 23 25 27 23 23 24 25 27 24 18 25 23 25 22 14 13 11 5 9 9 8 8 9 12 13 14 13 12 13 11 11 15 17 7 9 10 11 10 5 12 17
24 25 25 26 25 24 25 25 25 24 25 25 26 28 23 24 21 17 20 20 12 10 5 7 8 7 7 7 6 8 11 10 11 13 14 11 10 10 5 3 6 6 4 11 6 15 14
24 26 25 25 26 25 26 25 26 23 25 27 28 28 26 21 16 17 17 18 6 7 8 7 7 4 8 4 4 6 4 4 7 6 8 11 9 5 4 5 5 5 6 6 11 11 18
25 26 26 27 25 26 26 26 25 26 26 27 28 27 24 25 17 15 18 4 5 3 13 11 10 5 4 4 4 3 2 3 6 6 5 8 6 8 9 9 13 11 9 10 8 9 12
27 26 28 27 27 27 28 27 28 27 26 26 29 23 23 24 18 12 9 6 8 3 6 16 10 12 9 5 4 8 8 6 5 5 4 5 9 7 3 10 9 13 13 6 3 10 3
28 28 28 28 28 29 28 29 28 25 24 25 26 26 22 20 21 14 15 12 8 5 4 5 12 9 8 9 5 6 10 3 5 6 7 6 9 5 6 6 10 16 12 8 5 8 3
29 28 28 29 28 27 30 29 31 29 28 26 26 24 24 21 14 12 18 8 8 5 2 6 6 6 8 6 4 8 8 4 5 4 4 7 3 6 8 3 3 8 8 8 7 8 3
29 28 30 29 33 30 27 28 34 33 29 26 26 23 22 19 18 15 13 6 10 4 3 8 6 8 8 6 3 8 9 5 6 3 3 1 1 6 7 2 3 3 12 10 8 3 1
29 29 31 31 33 33 29 29 32 31 29 27 24 23 23 21 16 13 8 12 9 3 5 6 6 7 6 6 4 4 5 9 6 3 2 5 6 3 3 0 6 7 9 6 3 3 3
31 28 31 31 30 31 30 30 32 31 30 29 26 25 25 21 13 7 14 13 3 4 2 6 5 7 7 6 5 6 4 3 2 3 3 2 3 4 2 3 4 8 4 2 1 3 4
30 26 29 30 28 32 30 31 32 31 31 29 28 34 29 21 17 11 20 3 6 3 3 4 5 9 5 6 3 4 4 0 4 2 0 1 2 7 6 4 3 3 4 4 2 3 4
35 29 32 27 27 30 32 31 31 31 32 31 37 34 31 20 24 21 16 4 2 1 4 7 8 7 4 3 2 4 2 1 2 2 2 2 4 5 4 3 2 2 1 5 3 5 4
24 26 29 25 26 30 32 32 31 31 30 32 36 32 16 13 28 34 3 1 2 1 4 8 2 2 6 6 4 2 1 2 2 2 3 2 4 7 3 3 2 1 2 1 2 2 4
25 26 24 23 26 30 31 31 31 29 30 31 32 10 16 26 32 13 3 3 2 2 5 2 2 4 3 4 1 2 3 3 4 3 1 1 3 5 4 6 8 3 1 2 2 3 2
32 24 23 23 25 28 29 30 28 29 31 29 13 2 5 28 5 1 3 4 4 5 4 3 1 3 4 3 3 2 3 3 5 5 4 4 4 3 3 2 4 4 6 5 3 3 3
30 24 23 22 25 28 28 28 26 27 29 28 15 7 17 14 3 2 3 4 3 1 3 2 1 0 1 3 4 2 3 3 6 3 3 2 3 2 1 1 2 3 4 4 2 2 4
23 23 20 22 26 27 26 26 26 26 26 28 7 2 6 5 5 5 3 2 2 6 5 2 2 2 3 4 5 4 4 4 3 5 6 2 4 3 2 4 3 2 5 7 5 3 6
25 22 21 21 25 26 25 26 24 24 21 19 7 4 4 2 4 5 3 1 3 3 6 3 2 2 4 3 4 4 3 3 3 5 2 1 4 4 6 5 2 3 5 8 7 5 5
24 20 19 23 24 24 25 23 21 21 19 11 4 3 5 3 6 5 1 0 2 4 2 3 1 5 2 4 2 5 5 1 1 3 3 2 4 4 3 4 5 3 5 5 5 3 5
21 19 20 22 21 23 23 21 18 16 14 5 7 9 3 2 2 2 3 3 2 3 3 4 1 5 9 4 4 9 6 7 4 1 3 3 3 1 2 4 2 4 4 2 3 1 1
19 16 20 20 21 23 22 19 18 15 9 8 8 8 2 2 0 1 2 8 2 4 2 5 4 2 3 19 18 16 17 13 12 9 5 3 3 3 2 5 3 2 2 3 3 4 4
17 17 18 20 21 22 23 22 13 8 5 12 6 4 2 2 1 1 1 3 2 5 5 3 6 6 11 3 5 4 2 2 6 8 7 2 3 3 1 0 2 2 2 2 2 2 1
15 17 20 20 20 23 22 16 7 2 2 10 7 8 1 2 2 0 2 1 3 2 1 3 7 10 2 2 2 1 2 2 3 3 5 5 4 2 1 1 3 3 2 2 2 3 2
16 16 19 20 21 23 22 15 4 5 6 10 10 7 3 4 1 2 0 3 4 2 2 4 2 2 5 2 2 1 2 1 3 5 4 3 2 3 3 2 3 3 3 3 2 3 4
15 17 20 20 22 23 19 9 1 7 10 12 8 5 3 3 4 3 2 3 3 1 1 6 3 1 3 1 1 1 1 2 2 2 3 4 5 3 4 3 4 6 6 4 3 2 4
13 15 18 19 19 21 12 8 13 12 17 11 7 5 5 3 7 10 9 7 5 4 3 5 1 2 3 2 1 2 2 2 2 2 2 4 3 1 5 1 2 7 1 4 2 2 5
Wind_Direction
358 356 353 0 351 350 346 351 343 339 342 345 330 312 306 292 270 250 276 296 292 285 289 293 267 253 265 251 259 270 268 262 244 259 262 261 252 253 259 268 272 243 257 260 252 252 249
357 352 353 356 350 346 344 341 339 337 338 339 339 318 296 276 289 287 279 282 277 271 287 279 247 238 242 248 255 283 263 259 248 252 255 253 253 257 285 274 262 268 272 256 247 250 244
354 354 354 351 348 346 348 344 339 339 340 338 334 329 306 288 275 291 278 261 270 277 286 259 239 226 236 247 268 278 269 271 260 246 257 261 257 249 274 279 265 264 246 256 234 240 241
353 352 346 347 343 337 339 336 336 335 336 336 333 338 332 311 278 258 258 254 267 279 278 238 213 217 247 261 266 271 268 271 255 249 262 258 256 256 252 251 287 259 234 246 155 202 247
348 348 344 342 339 339 338 334 335 332 333 332 333 335 332 323 303 239 243 251 253 263 226 178 203 198 253 252 263 271 276 257 249 248 248 254 262 242 216 218 239 215 236 228 290 246 209
342 340 337 336 334 334 333 333 330 337 330 333 328 333 333 326 303 225 242 242 230 224 186 187 206 219 234 216 240 280 295 225 220 229 244 230 228 236 229 219 229 189 208 254 236 185 200
338 337 334 331 329 331 330 328 327 329 330 334 335 335 335 334 345 238 235 206 158 168 201 194 207 186 150 207 257 241 222 182 207 213 225 206 241 242 251 252 267 291 214 228 192 161 173
336 331 332 329 331 326 327 326 328 325 326 330 326 334 335 332 333 278 247 202 214 179 238 230 223 225 233 260 235 231 215 214 200 243 230 235 247 268 273 266 221 246 212 180 131 135 175
333 331 331 330 324 327 323 323 319 320 320 320 322 327 330 321 315 286 280 260 235 248 253 209 209 210 227 215 229 214 203 212 238 239 220 245 293 191 224 279 202 212 196 133 111 131 109
335 329 328 322 321 322 321 325 318 324 322 316 319 320 327 324 317 311 285 271 201 187 270 173 193 195 172 176 232 198 201 216 205 252 237 248 260 223 233 234 269 181 168 156 164 190 151
329 332 331 326 322 317 321 325 318 328 324 319 314 315 316 328 295 290 278 164 177 164 239 135 139 169 155 200 125 211 200 193 252 203 247 308 252 237 250 287 272 126 163 215 237 255 148
325 327 331 326 327 324 321 319 323 325 321 318 313 310 311 315 290 283 202 159 151 199 232 157 139 174 158 202 196 173 205 218 256 266 243 294 326 297 231 119 236 158 148 173 204 230 97
317 323 326 327 328 324 326 323 326 322 321 319 317 310 296 294 264 297 170 148 194 229 142 159 172 165 194 166 192 198 202 192 283 246 166 317 319 285 291 65 104 169 165 167 139 50 50
312 318 331 329 326 327 324 327 326 324 324 322 319 305 298 266 257 229 184 203 213 124 170 120 149 136 190 161 190 194 176 182 221 169 346 10 78 350 348 29 116 35 342 323 91 99 88
309 312 337 328 327 325 331 332 330 328 330 327 319 313 294 251 223 195 164 214 13 140 134 133 141 148 158 175 204 192 183 84 23 207 345 147 46 323 26 359 335 131 347 340 86 66 100
304 320 338 329 329 329 336 335 334 334 335 333 327 316 307 156 165 174 165 214 16 38 105 156 139 196 161 167 179 205 55 41 43 26 264 105 101 9 327 280 166 4 357 204 250 127 100
315 333 336 332 330 333 338 339 341 339 339 341 339 335 79 134 154 140 167 63 318 44 59 256 127 137 164 147 119 83 66 35 5 27 60 346 11 341 309 26 360 2 44 89 105 2 97
345 348 336 336 334 338 339 340 342 345 343 352 336 341 71 155 90 190 115 107 3 9 334 305 224 97 166 146 103 98 107 48 350 342 33 28 85 63 15 0 314 303 336 325 338 99 40
349 341 341 336 338 341 341 344 345 350 353 355 344 2 83 132 118 115 78 67 39 309 274 274 193 242 159 128 121 105 95 27 23 39 23 9 39 112 33 175 201 5 7 359 13 63 40
340 342 343 339 342 346 348 350 349 353 353 349 5 37 57 52 34 117 86 64 1 288 264 265 67 116 136 80 51 119 102 37 29 74 39 103 54 5 54 34 335 360 9 9 12 45 79
335 347 341 342 346 348 350 346 350 353 355 355 23 23 14 75 54 90 80 22 183 288 226 72 180 165 134 103 91 107 101 110 55 7 107 109 93 66 56 29 331 21 31 34 47 36 57
343 351 343 344 347 347 347 348 351 353 354 31 23 3 21 58 126 106 38 48 189 281 286 195 147 134 102 106 20 156 129 104 23 39 51 51 125 157 117 16 15 62 57 82 46 44 74
348 351 348 343 344 347 346 346 353 355 351 13 16 17 354 2 69 152 173 196 88 281 74 25 186 126 80 50 84 100 73 81 85 35 62 36 121 359 63 349 274 123 21 72 77 317 342
351 350 343 342 346 349 344 345 343 334 328 256 313 310 272 64 276 235 221 225 21 359 71 15 18 86 102 111 96 85 81 81 67 47 29 94 69 23 11 315 61 73 11 15 270 263 210
350 347 344 346 347 346 343 338 340 350 278 220 282 209 218 89 271 127 18 181 177 47 45 22 23 113 128 43 109 114 84 107 37 35 24 37 100 82 42 340 335 147 193 224 232 166 237
349 348 344 348 351 346 343 345 331 21 233 219 222 182 192 244 67 263 268 203 119 106 82 48 99 140 23 55 84 118 126 104 122 100 29 48 57 33 79 240 217 78 143 196 242 206 154
344 347 347 349 354 356 352 337 312 132 125 143 161 196 216 111 124 100 179 96 87 129 85 68 90 355 35 25 77 88 111 341 153 159 164 158 155 211 196 266 267 180 126 117 223 84 149
340 351 350 357 2 1 347 351 159 126 141 143 175 238 219 105 110 126 129 132 140 197 164 149 146 84 85 37 289 125 167 135 182 128 177 192 179 195 200 238 268 149 138 217 52 113 168
339 353 356 6 18 12 24 68 126 140 149 131 104 84 137 130 129 110 103 107 134 171 128 158 32 120 136 129 183 158 154 173 185 202 189 214 228 215 227 235 66 188 234 204 184 175 209